Location: *
(40.7873°S, 98.7174°E)
Time: 09:29:57
(UTC+00:00)

Cosmos 1833 Rocket - Pass Details

Date: 24 May 2022
Orbit: 832 x 840 km, 71.0° (Epoch: 04 July)

Event Time Altitude Azimuth Distance (km) Brightness Sun altitude
Rises 11:18:38 0° 337° (NNW) 3,384 6.4 -12.8°
Reaches altitude 10° 11:21:03 10° 336° (NNW) 2,458 5.7 -13.3°
Maximum altitude 11:26:43 86° 248° (WSW) 857 2.7 -14.3°
Drops below altitude 10° 11:32:28 10° 157° (SSE) 2,488 4.8 -15.3°
Enters shadow 11:33:13 - 157° (SSE) 2,776 5.0 -15.5°
